| time (UTC) | temp F | wind direction | speed MPH | gust MPH | rain 1hr in | rain 24hr in | rain mn in | humidity % | barometer mb |
| 20260509141612 | 81 | 325 | 2.0 | 6.0 | 0.00 | 0.01 | 0.01 | 77 | 1013.4 |
| 20260509141109 | 80 | 234 | 3.0 | 4.0 | 0.00 | 0.01 | 0.01 | 79 | 1013.2 |
| 20260509140606 | 80 | 141 | 4.0 | 6.0 | 0.00 | 0.01 | 0.01 | 79 | 1013.2 |
| 20260509140104 | 79 | 115 | 2.0 | 6.0 | 0.00 | 0.01 | 0.01 | 81 | 1013.4 |
| 20260509135601 | 80 | 219 | 6.0 | 7.0 | 0.00 | 0.01 | 0.01 | 80 | 1013.6 |
| 20260509135059 | 79 | 153 | 2.0 | 3.0 | 0.00 | 0.01 | 0.01 | 82 | 1013.3 |
| 20260509134555 | 78 | 119 | 3.0 | 3.0 | 0.00 | 0.01 | 0.01 | 84 | 1013.5 |
| 20260509134053 | 78 | 123 | 4.0 | 4.0 | 0.00 | 0.01 | 0.01 | 83 | 1013.6 |
| 20260509133550 | 78 | 267 | 1.0 | 4.0 | 0.00 | 0.01 | 0.01 | 84 | 1013.4 |
| 20260509133047 | 78 | 218 | 4.0 | 6.0 | 0.00 | 0.01 | 0.01 | 83 | 1013.5 |
| 20260509132545 | 78 | 57 | 1.0 | 3.0 | 0.00 | 0.01 | 0.01 | 85 | 1013.5 |
| 20260509132043 | 78 | 215 | 3.0 | 6.0 | 0.00 | 0.01 | 0.01 | 85 | 1013.3 |
| 20260509131539 | 78 | 142 | 3.0 | 4.0 | 0.05 | 0.01 | 0.01 | 86 | 1013.3 |
| 20260509131036 | 77 | 121 | 3.0 | 4.0 | 0.05 | 0.01 | 0.01 | 87 | 1013.5 |
| 20260509130531 | 77 | 164 | 3.0 | 4.0 | 0.00 | 0.00 | 0.00 | 87 | 1013.4 |
| 20260509130029 | 76 | 22 | 2.0 | 2.0 | 0.00 | 0.00 | 0.00 | 89 | 1013.5 |
| 20260509125525 | 75 | 23 | 1.0 | 2.0 | 0.00 | 0.00 | 0.00 | 91 | 1013.6 |
| 20260509125022 | 76 | 343 | 0.0 | 1.0 | 0.00 | 0.00 | 0.00 | 93 | 1013.3 |
| 20260509124518 | 75 | 5 | 1.0 | 3.0 | 0.00 | 0.00 | 0.00 | 94 | 1013.5 |
| 20260509124016 | 75 | 4 | 0.0 | 2.0 | 0.00 | 0.00 | 0.00 | 96 | 1013.5 |
| 20260509123514 | 74 | 111 | 2.0 | 3.0 | 0.00 | 0.00 | 0.00 | 96 | 1013.3 |
| 20260509123010 | 74 | 343 | 1.0 | 1.0 | 0.00 | 0.00 | 0.00 | 97 | 1013.5 |
| 20260509122506 | 74 | 350 | 0.0 | 1.0 | 0.00 | 0.00 | 0.00 | 97 | 1013.6 |
| 20260509122003 | 74 | 1 | 0.0 | 1.0 | 0.00 | 0.00 | 0.00 | 97 | 1013.7 |
| 20260509121500 | 74 | 347 | 0.0 | 0.0 | 0.00 | 0.00 | 0.00 | 97 | 1013.5 |
| 20260509120958 | 74 | 340 | 1.0 | 1.0 | 0.00 | 0.00 | 0.00 | 97 | 1013.2 |
| 20260509120455 | 74 | 18 | 0.0 | 1.0 | 0.00 | 0.00 | 0.00 | 97 | 1013.3 |
| 20260509115953 | 73 | 3 | 0.0 | 0.0 | 0.00 | 0.00 | 0.00 | 97 | 1013.2 |
| 20260509115450 | 73 | 357 | 0.0 | 0.0 | 0.00 | 0.00 | 0.00 | 97 | 1013.2 |
| 20260509114948 | 73 | 352 | 0.0 | 0.0 | 0.00 | 0.00 | 0.00 | 97 | 1013.2 |
| 20260509114446 | 73 | 9 | 0.0 | 0.0 | 0.00 | 0.00 | 0.00 | 97 | 1013.0 |
| 20260509113945 | 73 | 348 | 0.0 | 0.0 | 0.00 | 0.00 | 0.00 | 97 | 1013.0 |
| 20260509113442 | 73 | 349 | 0.0 | 0.0 | 0.00 | 0.00 | 0.00 | 98 | 1013.0 |
| 20260509112939 | 72 | 341 | 1.0 | 1.0 | 0.00 | 0.00 | 0.00 | 97 | 1013.0 |
| 20260509112436 | 72 | 352 | 0.0 | 0.0 | 0.00 | 0.00 | 0.00 | 97 | 1013.1 |
| 20260509111932 | 72 | 355 | 0.0 | 0.0 | 0.00 | 0.00 | 0.00 | 97 | 1012.6 |
| 20260509111430 | 72 | 354 | 0.0 | 1.0 | 0.00 | 0.00 | 0.00 | 97 | 1012.8 |
| 20260509110928 | 72 | 344 | 0.0 | 1.0 | 0.00 | 0.00 | 0.00 | 97 | 1012.7 |
| 20260509110423 | 72 | 352 | 0.0 | 0.0 | 0.00 | 0.00 | 0.00 | 97 | 1012.7 |
| 20260509105921 | 72 | 355 | 0.0 | 1.0 | 0.00 | 0.00 | 0.00 | 97 | 1012.7 |
| 20260509105420 | 72 | 355 | 0.0 | 0.0 | 0.00 | 0.00 | 0.00 | 97 | 1012.6 |
| 20260509104916 | 72 | 353 | 0.0 | 0.0 | 0.00 | 0.00 | 0.00 | 97 | 1012.5 |
| 20260509104413 | 72 | 350 | 0.0 | 0.0 | 0.00 | 0.00 | 0.00 | 97 | 1012.7 |
| 20260509103911 | 72 | 350 | 0.0 | 0.0 | 0.00 | 0.00 | 0.00 | 97 | 1012.8 |
| 20260509103408 | 72 | 351 | 0.0 | 0.0 | 0.00 | 0.00 | 0.00 | 97 | 1012.7 |
| 20260509102906 | 72 | 348 | 0.0 | 0.0 | 0.00 | 0.00 | 0.00 | 97 | 1012.6 |
| 20260509102403 | 72 | 351 | 0.0 | 0.0 | 0.00 | 0.00 | 0.00 | 98 | 1012.8 |
| 20260509101859 | 71 | 350 | 0.0 | 0.0 | 0.00 | 0.00 | 0.00 | 97 | 1012.6 |
| 20260509101355 | 71 | 356 | 0.0 | 0.0 | 0.00 | 0.00 | 0.00 | 97 | 1012.8 |
| 20260509100853 | 71 | 352 | 0.0 | 0.0 | 0.00 | 0.00 | 0.00 | 97 | 1012.7 |
| 20260509100350 | 71 | 352 | 0.0 | 0.0 | 0.00 | 0.00 | 0.00 | 97 | 1012.6 |
| 20260509095847 | 71 | 352 | 0.0 | 0.0 | 0.00 | 0.00 | 0.00 | 97 | 1012.3 |
| 20260509095344 | 71 | 353 | 0.0 | 0.0 | 0.00 | 0.00 | 0.00 | 97 | 1012.3 |
| 20260509094841 | 71 | 352 | 0.0 | 0.0 | 0.00 | 0.00 | 0.00 | 97 | 1012.5 |
| 20260509094338 | 71 | 352 | 0.0 | 0.0 | 0.00 | 0.00 | 0.00 | 97 | 1012.3 |
| 20260509093836 | 71 | 352 | 0.0 | 0.0 | 0.00 | 0.00 | 0.00 | 97 | 1012.6 |
| 20260509093332 | 71 | 354 | 0.0 | 0.0 | 0.00 | 0.00 | 0.00 | 97 | 1012.5 |
| 20260509092831 | 71 | 354 | 0.0 | 0.0 | 0.00 | 0.00 | 0.00 | 97 | 1012.3 |
| 20260509092328 | 71 | 354 | 0.0 | 0.0 | 0.00 | 0.00 | 0.00 | 97 | 1012.3 |
| 20260509091826 | 71 | 354 | 0.0 | 0.0 | 0.00 | 0.00 | 0.00 | 97 | 1012.3 |
| 20260509091323 | 71 | 356 | 0.0 | 0.0 | 0.00 | 0.00 | 0.00 | 97 | 1012.7 |
| 20260509090820 | 72 | 356 | 0.0 | 0.0 | 0.00 | 0.00 | 0.00 | 97 | 1012.8 |
| 20260509090317 | 72 | 351 | 0.0 | 0.0 | 0.00 | 0.00 | 0.00 | 97 | 1012.6 |
| 20260509085814 | 72 | 350 | 0.0 | 0.0 | 0.00 | 0.00 | 0.00 | 97 | 1012.4 |
| 20260509085312 | 72 | 350 | 0.0 | 0.0 | 0.00 | 0.00 | 0.00 | 97 | 1012.7 |
| 20260509084808 | 72 | 345 | 0.0 | 0.0 | 0.00 | 0.00 | 0.00 | 97 | 1012.8 |
| 20260509084305 | 72 | 354 | 0.0 | 0.0 | 0.00 | 0.00 | 0.00 | 97 | 1012.8 |
| 20260509083803 | 72 | 347 | 0.0 | 0.0 | 0.00 | 0.00 | 0.00 | 97 | 1012.9 |
| 20260509083259 | 72 | 346 | 0.0 | 0.0 | 0.00 | 0.00 | 0.00 | 97 | 1012.8 |
| 20260509082756 | 72 | 347 | 0.0 | 0.0 | 0.00 | 0.00 | 0.00 | 97 | 1012.6 |
| 20260509082253 | 72 | 351 | 0.0 | 0.0 | 0.00 | 0.00 | 0.00 | 97 | 1013.0 |
| 20260509081750 | 72 | 350 | 0.0 | 0.0 | 0.00 | 0.00 | 0.00 | 97 | 1012.9 |
| 20260509081247 | 72 | 349 | 0.0 | 0.0 | 0.00 | 0.00 | 0.00 | 97 | 1013.0 |
| 20260509080745 | 72 | 347 | 0.0 | 0.0 | 0.00 | 0.00 | 0.00 | 97 | 1012.9 |
| 20260509080243 | 71 | 354 | 0.0 | 0.0 | 0.00 | 0.00 | 0.00 | 97 | 1012.8 |
| 20260509075741 | 71 | 350 | 0.0 | 0.0 | 0.00 | 0.00 | 0.00 | 97 | 1012.9 |
| 20260509075238 | 71 | 354 | 0.0 | 0.0 | 0.00 | 0.00 | 0.00 | 97 | 1012.9 |
| 20260509074735 | 71 | 344 | 0.0 | 0.0 | 0.00 | 0.00 | 0.00 | 97 | 1012.9 |
| 20260509074232 | 71 | 357 | 0.0 | 0.0 | 0.00 | 0.00 | 0.00 | 97 | 1013.0 |
| 20260509073728 | 71 | 350 | 0.0 | 0.0 | 0.00 | 0.00 | 0.00 | 97 | 1012.9 |
| 20260509073225 | 71 | 350 | 0.0 | 0.0 | 0.00 | 0.00 | 0.00 | 97 | 1012.8 |
| 20260509072721 | 71 | 345 | 0.0 | 0.0 | 0.00 | 0.00 | 0.00 | 97 | 1013.1 |
| 20260509072218 | 71 | 350 | 0.0 | 0.0 | 0.00 | 0.00 | 0.00 | 97 | 1013.1 |
| 20260509071715 | 71 | 348 | 0.0 | 0.0 | 0.00 | 0.00 | 0.00 | 97 | 1013.1 |
| 20260509071212 | 71 | 344 | 0.0 | 0.0 | 0.00 | 0.00 | 0.00 | 97 | 1013.2 |
| 20260509070709 | 71 | 315 | 2.0 | 2.0 | 0.00 | 0.00 | 0.00 | 97 | 1013.1 |
| 20260509070206 | 71 | 349 | 0.0 | 0.0 | 0.00 | 0.00 | 0.00 | 97 | 1013.3 |
| 20260509065702 | 71 | 330 | 0.0 | 0.0 | 0.00 | 0.00 | 0.00 | 97 | 1013.2 |
| 20260509065158 | 71 | 324 | 0.0 | 0.0 | 0.00 | 0.00 | 0.00 | 97 | 1013.2 |
| 20260509064655 | 71 | 341 | 0.0 | 0.0 | 0.00 | 0.00 | 0.00 | 97 | 1013.3 |
| 20260509064153 | 71 | 347 | 0.0 | 1.0 | 0.00 | 0.00 | 0.00 | 97 | 1013.1 |
| 20260509063650 | 71 | 350 | 0.0 | 0.0 | 0.00 | 0.00 | 0.00 | 97 | 1013.2 |
| 20260509063146 | 71 | 347 | 0.0 | 2.0 | 0.00 | 0.00 | 0.00 | 97 | 1013.1 |
| 20260509062643 | 71 | 327 | 2.0 | 3.0 | 0.00 | 0.00 | 0.00 | 97 | 1013.5 |
| 20260509062140 | 71 | 351 | 0.0 | 1.0 | 0.00 | 0.00 | 0.00 | 97 | 1013.4 |
| 20260509061637 | 71 | 341 | 0.0 | 2.0 | 0.00 | 0.00 | 0.00 | 97 | 1013.5 |
| 20260509061134 | 72 | 310 | 2.0 | 2.0 | 0.00 | 0.00 | 0.00 | 96 | 1013.4 |
| 20260509060632 | 72 | 321 | 1.0 | 2.0 | 0.00 | 0.00 | 0.00 | 96 | 1013.4 |
| 20260509060128 | 72 | 347 | 0.0 | 0.0 | 0.00 | 0.00 | 0.00 | 96 | 1013.4 |
| 20260509055623 | 72 | 342 | 0.0 | 2.0 | 0.00 | 0.00 | 0.00 | 96 | 1013.6 |
| 20260509055119 | 72 | 343 | 0.0 | 1.0 | 0.00 | 0.00 | 0.00 | 96 | 1013.3 |
| 20260509054616 | 72 | 341 | 0.0 | 1.0 | 0.00 | 0.00 | 0.00 | 96 | 1013.5 |
| 20260509054114 | 73 | 315 | 2.0 | 3.0 | 0.00 | 0.00 | 0.00 | 96 | 1013.7 |
| 20260509053613 | 73 | 338 | 1.0 | 2.0 | 0.00 | 0.00 | 0.00 | 96 | 1013.5 |
| 20260509053109 | 73 | 320 | 2.0 | 2.0 | 0.00 | 0.00 | 0.00 | 96 | 1013.5 |
| 20260509052607 | 73 | 341 | 1.0 | 1.0 | 0.00 | 0.00 | 0.00 | 96 | 1013.6 |
| 20260509052105 | 73 | 342 | 2.0 | 3.0 | 0.00 | 0.00 | 0.00 | 96 | 1013.8 |
| 20260509051602 | 73 | 334 | 0.0 | 1.0 | 0.00 | 0.00 | 0.00 | 96 | 1013.9 |
| 20260509051059 | 73 | 351 | 0.0 | 0.0 | 0.00 | 0.00 | 0.00 | 96 | 1014.0 |
| 20260509050556 | 73 | 346 | 0.0 | 0.0 | 0.00 | 0.00 | 0.00 | 96 | 1014.0 |
| 20260509050052 | 73 | 332 | 0.0 | 1.0 | 0.00 | 0.00 | 0.00 | 96 | 1014.1 |
| 20260509045550 | 73 | 328 | 0.0 | 0.0 | 0.00 | 0.00 | 0.00 | 96 | 1014.2 |
| 20260509045047 | 73 | 351 | 0.0 | 0.0 | 0.00 | 0.00 | 0.00 | 96 | 1014.1 |
| 20260509044544 | 73 | 351 | 0.0 | 0.0 | 0.00 | 0.00 | 0.00 | 96 | 1014.1 |
| 20260509044041 | 73 | 343 | 0.0 | 0.0 | 0.00 | 0.00 | 0.00 | 96 | 1014.1 |
| 20260509043538 | 73 | 350 | 0.0 | 0.0 | 0.00 | 0.00 | 0.00 | 96 | 1013.9 |
| 20260509043033 | 73 | 350 | 0.0 | 0.0 | 0.00 | 0.00 | 0.00 | 96 | 1014.3 |
| 20260509042530 | 73 | 353 | 0.0 | 0.0 | 0.00 | 0.00 | 0.00 | 96 | 1014.1 |
| 20260509042026 | 73 | 353 | 0.0 | 0.0 | 0.00 | 0.00 | 0.00 | 96 | 1014.3 |
| 20260509041523 | 73 | 353 | 0.0 | 0.0 | 0.00 | 0.00 | 0.00 | 96 | 1014.1 |
| 20260509041021 | 73 | 353 | 0.0 | 0.0 | 0.00 | 0.00 | 0.00 | 96 | 1014.2 |
| 20260509040519 | 73 | 354 | 0.0 | 0.0 | 0.00 | 0.00 | 0.00 | 96 | 1014.1 |
| 20260509040015 | 73 | 348 | 0.0 | 0.0 | 0.00 | 0.15 | 0.15 | 96 | 1014.1 |
| 20260509035512 | 73 | 349 | 0.0 | 0.0 | 0.00 | 0.15 | 0.15 | 96 | 1014.0 |
| 20260509035009 | 73 | 349 | 0.0 | 0.0 | 0.00 | 0.15 | 0.15 | 96 | 1014.2 |
| 20260509034507 | 73 | 349 | 0.0 | 0.0 | 0.00 | 0.15 | 0.15 | 95 | 1014.0 |
| 20260509034004 | 73 | 348 | 0.0 | 0.0 | 0.00 | 0.15 | 0.15 | 95 | 1013.9 |
| 20260509033500 | 73 | 352 | 0.0 | 0.0 | 0.00 | 0.15 | 0.15 | 95 | 1014.5 |
| 20260509032957 | 73 | 346 | 0.0 | 0.0 | 0.00 | 0.15 | 0.15 | 95 | 1014.2 |
| 20260509032454 | 73 | 344 | 0.0 | 0.0 | 0.00 | 0.15 | 0.15 | 95 | 1014.4 |
| 20260509031952 | 73 | 349 | 0.0 | 0.0 | 0.00 | 0.15 | 0.15 | 95 | 1014.4 |
| 20260509031449 | 73 | 349 | 0.0 | 0.0 | 0.00 | 0.15 | 0.15 | 95 | 1014.6 |
| 20260509030946 | 73 | 349 | 0.0 | 0.0 | 0.00 | 0.15 | 0.15 | 95 | 1014.5 |
| 20260509030444 | 74 | 356 | 0.0 | 0.0 | 0.00 | 0.15 | 0.15 | 95 | 1014.7 |
| 20260509025941 | 73 | 353 | 0.0 | 0.0 | 0.00 | 0.15 | 0.15 | 95 | 1014.5 |
| 20260509025437 | 74 | 347 | 0.0 | 0.0 | 0.00 | 0.15 | 0.15 | 95 | 1014.7 |
| 20260509024932 | 74 | 352 | 0.0 | 0.0 | 0.00 | 0.15 | 0.15 | 95 | 1014.6 |
| 20260509024428 | 74 | 350 | 0.0 | 0.0 | 0.00 | 0.15 | 0.15 | 95 | 1014.6 |
| 20260509023925 | 74 | 345 | 0.0 | 0.0 | 0.00 | 0.15 | 0.15 | 95 | 1014.5 |
| 20260509023423 | 74 | 351 | 0.0 | 0.0 | 0.00 | 0.15 | 0.15 | 95 | 1014.6 |
| 20260509022919 | 74 | 352 | 0.0 | 0.0 | 0.00 | 0.15 | 0.15 | 95 | 1014.5 |
| 20260509022417 | 74 | 349 | 0.0 | 0.0 | 0.00 | 0.15 | 0.15 | 95 | 1014.4 |
| 20260509021914 | 74 | 346 | 0.0 | 0.0 | 0.00 | 0.15 | 0.15 | 94 | 1014.2 |
| 20260509021411 | 74 | 357 | 0.0 | 0.0 | 0.00 | 0.15 | 0.15 | 94 | 1014.1 |
| 20260509020908 | 74 | 354 | 0.0 | 0.0 | 0.00 | 0.15 | 0.15 | 94 | 1014.2 |
| 20260509020406 | 74 | 352 | 0.0 | 0.0 | 0.00 | 0.15 | 0.15 | 94 | 1014.0 |
| 20260509015903 | 74 | 348 | 0.0 | 0.0 | 0.00 | 0.15 | 0.15 | 94 | 1014.1 |
| 20260509015402 | 74 | 355 | 0.0 | 0.0 | 0.00 | 0.15 | 0.15 | 94 | 1013.9 |
| 20260509014858 | 75 | 346 | 0.0 | 1.0 | 0.00 | 0.15 | 0.15 | 94 | 1013.8 |
| 20260509014355 | 75 | 347 | 1.0 | 2.0 | 0.00 | 0.15 | 0.15 | 94 | 1013.9 |
| 20260509013851 | 76 | 349 | 0.0 | 0.0 | 0.00 | 0.15 | 0.15 | 94 | 1013.8 |
| 20260509013348 | 76 | 296 | 0.0 | 1.0 | 0.00 | 0.15 | 0.15 | 94 | 1013.6 |
| 20260509012844 | 76 | 347 | 0.0 | 1.0 | 0.00 | 0.15 | 0.15 | 94 | 1013.7 |
| 20260509012340 | 76 | 339 | 0.0 | 2.0 | 0.00 | 0.15 | 0.15 | 94 | 1013.5 |
| 20260509011838 | 75 | 35 | 0.0 | 0.0 | 0.00 | 0.15 | 0.15 | 93 | 1013.8 |
| 20260509011335 | 75 | 12 | 0.0 | 0.0 | 0.00 | 0.15 | 0.15 | 93 | 1013.5 |
| 20260509010833 | 76 | 351 | 0.0 | 0.0 | 0.00 | 0.15 | 0.15 | 93 | 1013.6 |
| 20260509010330 | 76 | 347 | 0.0 | 0.0 | 0.00 | 0.15 | 0.15 | 92 | 1013.3 |
| 20260509005827 | 76 | 4 | 1.0 | 4.0 | 0.00 | 0.15 | 0.15 | 91 | 1013.3 |
| 20260509005325 | 76 | 350 | 0.0 | 2.0 | 0.07 | 0.15 | 0.15 | 90 | 1013.1 |
| 20260509004825 | 77 | 22 | 1.0 | 2.0 | 0.90 | 0.15 | 0.15 | 89 | 1013.0 |
| 20260509004322 | 79 | 24 | 3.0 | 4.0 | 0.71 | 0.12 | 0.12 | 84 | 1013.1 |
| 20260509003820 | 83 | 316 | 1.0 | 6.0 | 0.00 | 0.00 | 0.00 | 75 | 1013.1 |
| 20260509003317 | 84 | 328 | 2.0 | 8.0 | 0.00 | 0.00 | 0.00 | 69 | 1012.6 |
| 20260509002814 | 84 | 4 | 3.0 | 7.0 | 0.00 | 0.00 | 0.00 | 67 | 1012.2 |
| 20260509002312 | 84 | 111 | 2.0 | 10.0 | 0.00 | 0.00 | 0.00 | 67 | 1011.5 |
| 20260509001810 | 85 | 132 | 4.0 | 8.0 | 0.00 | 0.00 | 0.00 | 67 | 1011.4 |
| 20260509001305 | 85 | 128 | 6.0 | 9.0 | 0.00 | 0.00 | 0.00 | 67 | 1011.7 |
| 20260509000803 | 85 | 117 | 2.0 | 4.0 | 0.00 | 0.00 | 0.00 | 67 | 1011.8 |
| 20260509000303 | 86 | 106 | 3.0 | 4.0 | 0.00 | 0.00 | 0.00 | 66 | 1011.8 |
| 20260508235757 | 86 | 131 | 1.0 | 2.0 | 0.00 | 0.00 | 0.00 | 66 | 1012.0 |
| 20260508235254 | 86 | 354 | 0.0 | 3.0 | 0.00 | 0.00 | 0.00 | 66 | 1011.6 |
| 20260508234751 | 87 | 116 | 4.0 | 7.0 | 0.00 | 0.00 | 0.00 | 65 | 1011.6 |
| 20260508234247 | 87 | 357 | 1.0 | 2.0 | 0.00 | 0.00 | 0.00 | 65 | 1011.6 |
| 20260508233746 | 87 | 301 | 2.0 | 7.0 | 0.00 | 0.00 | 0.00 | 65 | 1011.6 |
| 20260508233245 | 87 | 130 | 5.0 | 7.0 | 0.00 | 0.00 | 0.00 | 64 | 1011.1 |
| 20260508232742 | 87 | 124 | 5.0 | 6.0 | 0.00 | 0.00 | 0.00 | 64 | 1011.3 |
| 20260508232238 | 87 | 341 | 3.0 | 6.0 | 0.00 | 0.00 | 0.00 | 64 | 1011.0 |
| 20260508231736 | 88 | 116 | 7.0 | 9.0 | 0.00 | 0.00 | 0.00 | 63 | 1011.1 |
| 20260508231232 | 88 | 152 | 5.0 | 7.0 | 0.00 | 0.00 | 0.00 | 63 | 1010.7 |
| 20260508230729 | 89 | 68 | 3.0 | 10.0 | 0.00 | 0.00 | 0.00 | 62 | 1010.8 |
| 20260508230225 | 89 | 146 | 7.0 | 9.0 | 0.00 | 0.00 | 0.00 | 61 | 1010.6 |
| 20260508225724 | 90 | 74 | 5.0 | 8.0 | 0.00 | 0.00 | 0.00 | 61 | 1010.7 |
| 20260508225220 | 90 | 209 | 5.0 | 7.0 | 0.00 | 0.00 | 0.00 | 59 | 1010.5 |
| 20260508224718 | 90 | 153 | 1.0 | 4.0 | 0.00 | 0.00 | 0.00 | 56 | 1010.6 |
| 20260508224215 | 91 | 66 | 3.0 | 3.0 | 0.00 | 0.00 | 0.00 | 48 | 1010.4 |
| 20260508223712 | 91 | 25 | 2.0 | 2.0 | 0.00 | 0.00 | 0.00 | 49 | 1010.4 |
| 20260508223210 | 91 | 343 | 0.0 | 1.0 | 0.00 | 0.00 | 0.00 | 49 | 1010.7 |
| 20260508222707 | 91 | 346 | 1.0 | 1.0 | 0.00 | 0.00 | 0.00 | 50 | 1010.6 |
| 20260508222204 | 91 | 143 | 2.0 | 3.0 | 0.00 | 0.00 | 0.00 | 49 | 1010.6 |
| 20260508221700 | 91 | 57 | 1.0 | 3.0 | 0.00 | 0.00 | 0.00 | 50 | 1010.4 |
| 20260508221156 | 91 | 210 | 4.0 | 6.0 | 0.00 | 0.00 | 0.00 | 48 | 1010.7 |
| 20260508220653 | 91 | 341 | 1.0 | 3.0 | 0.00 | 0.00 | 0.00 | 49 | 1010.4 |
| 20260508220149 | 91 | 139 | 4.0 | 4.0 | 0.00 | 0.00 | 0.00 | 48 | 1010.4 |
| 20260508215646 | 92 | 235 | 2.0 | 4.0 | 0.00 | 0.00 | 0.00 | 48 | 1010.5 |
| 20260508215142 | 92 | 302 | 3.0 | 3.0 | 0.00 | 0.00 | 0.00 | 48 | 1010.7 |
| 20260508214640 | 93 | 319 | 1.0 | 4.0 | 0.00 | 0.00 | 0.00 | 46 | 1010.6 |
| 20260508214137 | 93 | 263 | 4.0 | 7.0 | 0.00 | 0.00 | 0.00 | 46 | 1010.5 |
| 20260508213633 | 93 | 335 | 2.0 | 7.0 | 0.00 | 0.00 | 0.00 | 47 | 1010.5 |
| 20260508213129 | 93 | 72 | 2.0 | 3.0 | 0.00 | 0.00 | 0.00 | 45 | 1010.7 |
| 20260508212626 | 93 | 344 | 1.0 | 6.0 | 0.00 | 0.00 | 0.00 | 45 | 1010.5 |
| 20260508212123 | 93 | 21 | 1.0 | 2.0 | 0.00 | 0.00 | 0.00 | 44 | 1010.4 |
| 20260508211618 | 93 | 317 | 2.0 | 3.0 | 0.00 | 0.00 | 0.00 | 44 | 1010.3 |
| 20260508211115 | 93 | 313 | 2.0 | 6.0 | 0.00 | 0.00 | 0.00 | 44 | 1010.7 |
| 20260508210611 | 93 | 66 | 1.0 | 3.0 | 0.00 | 0.00 | 0.00 | 45 | 1010.7 |
| 20260508210109 | 94 | 20 | 1.0 | 6.0 | 0.00 | 0.00 | 0.00 | 41 | 1010.7 |
| 20260508205606 | 94 | 303 | 2.0 | 3.0 | 0.00 | 0.00 | 0.00 | 42 | 1010.6 |
| 20260508205102 | 93 | 342 | 1.0 | 4.0 | 0.00 | 0.00 | 0.00 | 42 | 1010.6 |
| 20260508204558 | 94 | 295 | 2.0 | 7.0 | 0.00 | 0.00 | 0.00 | 43 | 1010.7 |
| 20260508204055 | 93 | 307 | 1.0 | 6.0 | 0.00 | 0.00 | 0.00 | 45 | 1010.7 |
| 20260508203551 | 93 | 257 | 4.0 | 7.0 | 0.00 | 0.00 | 0.00 | 45 | 1010.8 |
| 20260508203047 | 92 | 343 | 0.0 | 2.0 | 0.00 | 0.00 | 0.00 | 45 | 1011.0 |
| 20260508202543 | 91 | 346 | 0.0 | 0.0 | 0.00 | 0.00 | 0.00 | 46 | 1011.0 |
| 20260508202041 | 92 | 77 | 2.0 | 2.0 | 0.00 | 0.00 | 0.00 | 46 | 1011.1 |
| 20260508201537 | 92 | 330 | 2.0 | 3.0 | 0.00 | 0.00 | 0.00 | 48 | 1011.3 |
| 20260508201034 | 93 | 312 | 2.0 | 7.0 | 0.00 | 0.00 | 0.00 | 46 | 1011.3 |
| 20260508200531 | 93 | 276 | 3.0 | 6.0 | 0.00 | 0.00 | 0.00 | 45 | 1011.6 |
| 20260508200026 | 92 | 243 | 2.0 | 6.0 | 0.00 | 0.00 | 0.00 | 47 | 1011.4 |
| 20260508195524 | 92 | 294 | 2.0 | 3.0 | 0.00 | 0.00 | 0.00 | 47 | 1011.4 |
| 20260508195020 | 93 | 309 | 2.0 | 4.0 | 0.00 | 0.00 | 0.00 | 46 | 1011.7 |
| 20260508194517 | 94 | 229 | 3.0 | 3.0 | 0.00 | 0.00 | 0.00 | 44 | 1011.6 |
| 20260508194014 | 93 | 330 | 0.0 | 4.0 | 0.00 | 0.00 | 0.00 | 46 | 1011.8 |
| 20260508193510 | 93 | 356 | 1.0 | 6.0 | 0.00 | 0.00 | 0.00 | 47 | 1011.9 |
| 20260508193007 | 93 | 348 | 1.0 | 4.0 | 0.00 | 0.00 | 0.00 | 46 | 1011.7 |
| 20260508192504 | 94 | 7 | 1.0 | 3.0 | 0.00 | 0.00 | 0.00 | 47 | 1011.8 |
| 20260508192001 | 93 | 311 | 1.0 | 4.0 | 0.00 | 0.00 | 0.00 | 47 | 1012.0 |
| 20260508191458 | 92 | 319 | 2.0 | 3.0 | 0.00 | 0.00 | 0.00 | 47 | 1012.2 |
| 20260508190954 | 93 | 311 | 1.0 | 6.0 | 0.00 | 0.00 | 0.00 | 47 | 1012.3 |
| 20260508190452 | 91 | 291 | 1.0 | 4.0 | 0.00 | 0.00 | 0.00 | 50 | 1012.4 |
| 20260508185948 | 91 | 215 | 3.0 | 4.0 | 0.00 | 0.00 | 0.00 | 50 | 1012.6 |
| 20260508185446 | 91 | 48 | 3.0 | 6.0 | 0.00 | 0.00 | 0.00 | 51 | 1012.8 |
| 20260508184943 | 93 | 111 | 3.0 | 4.0 | 0.00 | 0.00 | 0.00 | 48 | 1012.7 |
| 20260508184440 | 92 | 342 | 0.0 | 2.0 | 0.00 | 0.00 | 0.00 | 49 | 1013.0 |
| 20260508183937 | 93 | 297 | 3.0 | 4.0 | 0.00 | 0.00 | 0.00 | 49 | 1012.8 |
| 20260508183433 | 92 | 53 | 2.0 | 2.0 | 0.00 | 0.00 | 0.00 | 47 | 1013.0 |
| 20260508182928 | 92 | 291 | 4.0 | 6.0 | 0.00 | 0.00 | 0.00 | 48 | 1013.2 |
| 20260508182426 | 92 | 261 | 2.0 | 6.0 | 0.00 | 0.00 | 0.00 | 48 | 1013.3 |
| 20260508181926 | 92 | 256 | 6.0 | 7.0 | 0.00 | 0.00 | 0.00 | 47 | 1013.3 |
| 20260508181423 | 91 | 333 | 2.0 | 7.0 | 0.00 | 0.00 | 0.00 | 52 | 1013.4 |
| 20260508180921 | 91 | 280 | 3.0 | 6.0 | 0.00 | 0.00 | 0.00 | 52 | 1013.0 |
| 20260508180417 | 90 | 331 | 2.0 | 4.0 | 0.00 | 0.00 | 0.00 | 51 | 1013.5 |
| 20260508175913 | 90 | 318 | 2.0 | 4.0 | 0.00 | 0.00 | 0.00 | 50 | 1013.6 |
| 20260508175410 | 90 | 344 | 0.0 | 3.0 | 0.00 | 0.00 | 0.00 | 51 | 1013.8 |
| 20260508174908 | 90 | 296 | 3.0 | 4.0 | 0.00 | 0.00 | 0.00 | 50 | 1013.9 |
| 20260508174405 | 91 | 269 | 2.0 | 3.0 | 0.00 | 0.00 | 0.00 | 49 | 1013.9 |
| 20260508173902 | 90 | 281 | 2.0 | 2.0 | 0.00 | 0.00 | 0.00 | 51 | 1013.6 |
| 20260508173359 | 91 | 200 | 1.0 | 3.0 | 0.00 | 0.00 | 0.00 | 52 | 1013.8 |
| 20260508172854 | 91 | 343 | 0.0 | 3.0 | 0.00 | 0.00 | 0.00 | 49 | 1014.0 |
| 20260508172352 | 91 | 326 | 1.0 | 2.0 | 0.00 | 0.00 | 0.00 | 50 | 1013.9 |
| 20260508171848 | 92 | 242 | 4.0 | 7.0 | 0.00 | 0.00 | 0.00 | 50 | 1014.0 |
| 20260508171344 | 91 | 275 | 3.0 | 3.0 | 0.00 | 0.00 | 0.00 | 49 | 1014.1 |
| 20260508170841 | 91 | 339 | 0.0 | 4.0 | 0.00 | 0.00 | 0.00 | 51 | 1014.4 |
| 20260508170340 | 89 | 312 | 0.0 | 3.0 | 0.00 | 0.00 | 0.00 | 52 | 1014.5 |
| 20260508165836 | 89 | 242 | 2.0 | 7.0 | 0.00 | 0.00 | 0.00 | 51 | 1014.4 |
| 20260508165334 | 91 | 303 | 4.0 | 7.0 | 0.00 | 0.00 | 0.00 | 50 | 1014.3 |
| 20260508164829 | 91 | 346 | 3.0 | 7.0 | 0.00 | 0.00 | 0.00 | 49 | 1014.5 |
| 20260508164326 | 90 | 20 | 2.0 | 2.0 | 0.00 | 0.00 | 0.00 | 53 | 1014.6 |
| 20260508163824 | 89 | 357 | 2.0 | 3.0 | 0.00 | 0.00 | 0.00 | 53 | 1014.8 |
| 20260508163321 | 88 | 296 | 3.0 | 3.0 | 0.00 | 0.00 | 0.00 | 55 | 1014.6 |
| 20260508162817 | 87 | 343 | 4.0 | 7.0 | 0.00 | 0.00 | 0.00 | 58 | 1015.0 |
| 20260508162314 | 88 | 341 | 4.0 | 7.0 | 0.00 | 0.00 | 0.00 | 56 | 1014.8 |
| 20260508161811 | 89 | 314 | 3.0 | 7.0 | 0.00 | 0.00 | 0.00 | 55 | 1015.0 |
| 20260508161308 | 88 | 279 | 3.0 | 8.0 | 0.00 | 0.00 | 0.00 | 57 | 1015.1 |
| 20260508160806 | 87 | 299 | 2.0 | 4.0 | 0.00 | 0.00 | 0.00 | 58 | 1015.2 |
| 20260508160304 | 89 | 266 | 5.0 | 7.0 | 0.00 | 0.00 | 0.00 | 57 | 1015.4 |
| 20260508155800 | 89 | 63 | 2.0 | 8.0 | 0.00 | 0.00 | 0.00 | 56 | 1015.4 |
| 20260508155257 | 88 | 211 | 5.0 | 6.0 | 0.00 | 0.00 | 0.00 | 57 | 1015.5 |
| 20260508154754 | 88 | 273 | 2.0 | 6.0 | 0.00 | 0.00 | 0.00 | 59 | 1015.2 |
| 20260508154252 | 87 | 303 | 3.0 | 6.0 | 0.00 | 0.00 | 0.00 | 61 | 1015.3 |
| 20260508153748 | 85 | 325 | 0.0 | 2.0 | 0.00 | 0.00 | 0.00 | 64 | 1015.6 |
| 20260508153246 | 85 | 297 | 2.0 | 4.0 | 0.00 | 0.00 | 0.00 | 63 | 1015.5 |
| 20260508152742 | 86 | 300 | 4.0 | 6.0 | 0.00 | 0.00 | 0.00 | 61 | 1015.6 |
| 20260508152238 | 85 | 260 | 2.0 | 3.0 | 0.00 | 0.00 | 0.00 | 64 | 1015.5 |
| 20260508151734 | 85 | 277 | 3.0 | 6.0 | 0.00 | 0.00 | 0.00 | 65 | 1015.7 |
| 20260508151231 | 86 | 291 | 4.0 | 4.0 | 0.00 | 0.00 | 0.00 | 64 | 1015.8 |
| 20260508150728 | 86 | 313 | 4.0 | 8.0 | 0.00 | 0.00 | 0.00 | 65 | 1015.7 |
| 20260508150225 | 85 | 288 | 4.0 | 6.0 | 0.00 | 0.00 | 0.00 | 64 | 1015.7 |
| 20260508145720 | 85 | 244 | 7.0 | 9.0 | 0.00 | 0.00 | 0.00 | 64 | 1015.8 |
| 20260508145216 | 84 | 0 | 1.0 | 6.0 | 0.00 | 0.00 | 0.00 | 67 | 1015.5 |
| 20260508144714 | 84 | 337 | 3.0 | 9.0 | 0.00 | 0.00 | 0.00 | 69 | 1015.5 |
| 20260508144212 | 85 | 285 | 3.0 | 4.0 | 0.00 | 0.00 | 0.00 | 66 | 1015.5 |
| 20260508143709 | 86 | 307 | 1.0 | 6.0 | 0.00 | 0.00 | 0.00 | 65 | 1015.8 |
| 20260508143206 | 83 | 334 | 1.0 | 3.0 | 0.00 | 0.00 | 0.00 | 69 | 1015.7 |
| 20260508142702 | 82 | 310 | 2.0 | 6.0 | 0.00 | 0.00 | 0.00 | 72 | 1015.8 |
| 20260508142159 | 83 | 281 | 2.0 | 6.0 | 0.00 | 0.00 | 0.00 | 70 | 1015.8 |